Regional Weather Roundup
Issued by NWS

Home | Current Version | Previous Version | Graphics & Text | Print | Product List | Glossary Off
Versions: 1 2 3 4 5 6 7 8 9 10 11 12 13 14 15 16 17 18 19 20 21 22 23 24 25 26 27 28 29 30 31 32 33 34 35 36 37 38 39 40 41 42 43 44 45 46 47 48 49 50

000
ASUS43 KDMX 230301
RWRIA

WEATHER ROUNDUP FOR IOWA
NATIONAL WEATHER SERVICE DES MOINES IA
1000 PM CDT MON MAY 22 2017

NOTE: "FAIR" INDICATES FEW OR NO CLOUDS BELOW 12,000 FEET WITH NO
SIGNIFICANT WEATHER AND/OR OBSTRUCTIONS TO VISIBILITY.

* - THESE STATIONS ARE NOT NWS STATIONS...THUS NOT UNDER NWS
QUALITY CONTROL.  THEY ALSO DO NOT REPORT WEATHER SUCH
AS PRECIPITATION OR FOG.

IAZ001>003-012>014-020>022-031>034-043>046-230400-
   NORTHWEST IOWA

CITY           SKY/WX    TMP DP  RH WIND       PRES   REMARKS
CARROLL *      CLOUDY    59  52  77 W7        29.87R
CHEROKEE *     CLEAR     53  49  89 NW8       29.89R
DENISON *      CLEAR     57  48  72 NW3       29.90R
LE MARS *      PTCLDY    52  45  76 N9        29.93R
ORANGE CITY *  CLOUDY    52  46  82 N7        29.92R
SHELDON *      CLOUDY    52  46  82 N9          N/A
SIOUX CITY     PTCLDY    54  48  80 N9        29.92R
SPENCER        CLOUDY    53  50  89 N13       29.88R
STORM LAKE *   CLEAR     55  48  76 NW12G20   29.89R
$$

IAZ055>058-069>071-079>083-090>094-230400-
   SOUTHWEST IOWA

CITY           SKY/WX    TMP DP  RH WIND       PRES   REMARKS
ATLANTIC *     CLOUDY    57  55  94 W6        29.88R
AUDUBON *      CLOUDY    57  52  82 W3        29.89R
CLARINDA *     CLOUDY    61  55  82 CALM      29.90S
COUNCIL BLFS * CLOUDY    57  57 100 SW6       29.89S
CRESTON *      CLOUDY    59  54  82 W7        29.89S
HARLAN  *      CLEAR     55  52  88 NW7       29.92R
LAMONI         PTCLDY    56  52  86 SW9       29.89S
RED OAK *      CLOUDY    59  55  88 W7        29.89R
SHENANDOAH *   CLOUDY    59  55  88 W7        29.89R
$$

IAZ047>049-059>061-072>074-084-230400-
   CENTRAL IOWA

CITY           SKY/WX    TMP DP  RH WIND       PRES   REMARKS
AMES           CLOUDY    59  54  83 W8        29.86R
ANKENY *       CLOUDY    57  52  82 W7        29.86R
BOONE *        CLOUDY    59  55  88 W5        29.86R
DES MOINES     CLOUDY    59  51  75 SW6       29.85F
GRINNELL*      CLOUDY    59  53  79 SW9       29.86S
MARSHALLTOWN   LGT RAIN  57  55  93 SW12      29.86R
NEWTON *       CLOUDY    61  52  72 W7G14     29.83F
PELLA *        PTCLDY    58  53  81 SW7       29.87F
PERRY *        LGT RAIN  58  55  91 W6        29.87R
$$

IAZ004>006-015-016-023>025-035-036-230400-
   NORTH CENTRAL IOWA

CITY           SKY/WX    TMP DP  RH WIND       PRES   REMARKS
ALGONA *       MOCLDY    54  52  94 N6        29.86R
CLARION *      CLEAR     55  54  94 W5        29.85S
ESTHERVILLE    CLOUDY    51  49  92 N14       29.87R
FORT DODGE *   CLEAR     55  48  76 CALM      29.87R
MASON CITY     PTCLDY    53  51  93 N7        29.84R
FOREST CITY *    N/A     52  46  82 CALM      29.85R
WEBSTER CITY * PTCLDY    57  54  88 NW7       29.83F
IOWA FALLS *   MOCLDY    57  55  92 SW7       29.86R
$$

IAZ007>011-017>019-026>030-037>042-050>054-066-230400-
   NORTHEAST IOWA

CITY           SKY/WX    TMP DP  RH WIND       PRES   REMARKS
CEDAR RAPIDS   CLOUDY    59  56  89 SW10      29.84F
CHARLES CITY * CLOUDY    55  55 100 W3        29.83R
CLINTON *      CLOUDY    57  55  93 S9        29.88S
DECORAH *      LGT RAIN  57  52  82 VRB6      29.82R
DUBUQUE        CLOUDY    58  55  90 SW13      29.85R
MONTICELLO *   PTCLDY    61  55  82 SW12      29.83F
OELWEIN *      CLOUDY    55  52  88 NW12G20   29.83R
WATERLOO       CLOUDY    56  52  86 S8        29.82R
$$

IAZ064-065-067-068-078-230400-
   EAST CENTRAL IOWA

CITY           SKY/WX    TMP DP  RH WIND       PRES   REMARKS
DAVENPORT      CLOUDY    59  55  87 SW10      29.89R
IOWA CITY      CLOUDY    61  54  77 S8        29.87F
MT. PLEASANT * CLOUDY    58  52  80 S12       29.90S
MUSCATINE *    CLOUDY    61  54  77 SW12G17   29.89R
QUAD CITIES    CLOUDY    60  54  80 SW10      29.88S
$$

IAZ062-063-075>077-085>089-095>099-230400-
   SOUTHEAST IOWA

CITY           SKY/WX    TMP DP  RH WIND       PRES   REMARKS
BURLINGTON     CLOUDY    59  56  89 SW14      29.91S
FAIRFIELD *    MOCLDY    59  52  77 SW12      29.88F
FORT MADISON * CLOUDY    57  54  88 SW9       29.92F
KEOKUK *       CLOUDY    57  54  88 SW8       29.91F
OSKALOOSA *      N/A     56  53  86 SW10      29.88S
OTTUMWA        CLOUDY    57  54  89 S9        29.87F
WASHINGTON *   CLOUDY    59  55  88 SW12      29.89S
$$

ABBREVIATIONS USED IN REMARKS
   TC - TEMPERATURES IN CELSIUS
  WCI - WIND CHILL INDEX
   HX - HEAT INDEX
  VSB - VISIBILITY
$$





USA.gov is the U.S. government's official web portal to all federal, state and local government web resources and services.